ROMMA est une association bénévole à but non lucratif. Votre soutien est indispensable : ADHERER à ROMMA ou FAIRE un DON

Nice - (06, Alpes-Maritimes)

Côte-d'Azur (190 m)   Longitude: 07° 14' E   Latitude: 43° 43' N Station partenaire n°136
 

Détail journalier du     <<     >>

Température Precipitation Humidité Pression Vent Dir Rafale Dir. rafale Ensol.
Heure (°C) (mm) (%) (hPa) (km/h) (km/h) (min)
01:00 15.708710174NNO6NNO0
02:00 15.308610175NNO15NNO0
03:00 15.508410174NO15NO0
04:00 15.408710173N8N0
05:00 14.608810174NNO8N0
06:00 15.308610183NNO10NNO0
07:00 15.208410184NNO10NNO0
08:00 16.008110184N15NNO0
09:00 17.407810193N13N10
10:00 19.207210192NNO13NO50
11:00 20.007310194NO11NO60
12:00 20.607210196S18SSE60
13:00 19.907810189SSE18SE50
14:00 18.708310185SE15SE0
15:00 18.408510185S11S0
16:00 17.908610185SSE11SSE0
17:00 17.708810183SSE10SSE0
18:00 17.4088101805SSO0
19:00 17.308810191---5S0
20:00 17.3088101903SSE0
21:00 17.408810191SSO6ONO0
22:00 17.308810193ONO6ONO0
23:00 16.509010192ONO5ONO0
minuit 16.009210191ONO5NO0

Graphique du 30-10-2019

 

Serveur OMMA